Location: Songkhla
(7.2000°N, 100.6000°E)
Time: 07:26:45
(UTC+07:00)

FO-99 - Visible Passes

Search period start: 26 July 2021 00:00
Search period end: 05 August 2021 00:00
Orbit: 473 x 503 km, 97.2° (Epoch: 25 July)

Date Brightness Start Highest point End Pass type
(mag) Time Alt. Az. Time Alt. Az. Time Alt. Az.
26 Jul ? 20:00:01 15° NE 20:00:01 15° NE 20:01:00 10° NNE visible
27 Jul ? 21:10:56 10° NW 21:10:56 10° NW 21:10:59 10° NW visible
28 Jul ? 20:47:24 17° NNW 20:47:24 17° NNW 20:48:24 10° NNW visible
29 Jul ? 20:23:53 20° N 20:23:53 20° N 20:25:08 10° N visible
30 Jul ? 20:00:22 15° NE 20:00:22 15° NE 20:01:14 10° NNE visible
01 Aug ? 20:47:45 16° NNW 20:47:45 16° NNW 20:48:33 10° NNW visible
02 Aug ? 20:24:12 18° N 20:24:12 18° N 20:25:17 10° N visible
03 Aug ? 20:00:41 14° NNE 20:00:41 14° NNE 20:01:23 10° NNE visible
